Time,TemperatureF,DewpointF,PressureIn,WindDirection,WindDirectionDegrees,WindSpeedMPH,WindSpeedGustMPH,Humidity,HourlyPrecipIn,Conditions,Clouds,dailyrainin,SolarRadiationWatts/m^2,SoftwareType,DateUTC
2013-02-22 04:02:00,34.0,34.0,-100.00,NW,315,0.0,2.0,100,-99.99,,,0.00,0.000000,,2013-02-22 12:02:00,
2013-02-22 04:11:00,34.0,34.0,-100.00,NW,315,0.0,2.0,100,-99.99,,,0.00,0.000000,,2013-02-22 12:11:00,
2013-02-22 04:21:00,34.0,34.0,-100.00,NW,315,0.0,2.0,100,-99.99,,,0.00,0.000000,,2013-02-22 12:21:00,
2013-02-22 04:32:00,34.0,34.0,-100.00,NW,315,0.0,2.0,100,-99.99,,,0.00,0.000000,,2013-02-22 12:32:00,
2013-02-22 04:42:00,34.0,34.0,-100.00,NW,315,0.0,2.0,100,-99.99,,,0.00,0.000000,,2013-02-22 12:42:00,
2013-02-22 05:01:00,34.0,34.0,-100.00,North,5,0.0,1.0,100,0.00,,,-99.99,0.000000,,2013-02-22 13:01:00,
2013-02-22 05:11:00,34.0,34.0,-100.00,North,5,0.0,1.0,100,0.00,,,-99.99,0.000000,,2013-02-22 13:11:00,
2013-02-22 05:22:00,34.0,34.0,-100.00,North,5,0.0,1.0,100,0.00,,,-99.99,0.000000,,2013-02-22 13:22:00,
2013-02-22 05:31:00,34.0,34.0,-100.00,North,5,0.0,1.0,100,0.00,,,-99.99,0.000000,,2013-02-22 13:31:00,
2013-02-22 05:41:00,34.0,34.0,-100.00,North,5,0.0,1.0,100,0.00,,,-99.99,0.000000,,2013-02-22 13:41:00,
2013-02-22 07:02:00,-999.0,-99.9,-100.00,South,190,0.0,-999.0,-999,-99.99,,,0.00,,,2013-02-22 15:02:00,
2013-02-22 07:12:00,-999.0,-99.9,-100.00,South,190,0.0,-999.0,-999,-99.99,,,0.00,,,2013-02-22 15:12:00,
2013-02-22 07:22:00,-999.0,-99.9,-100.00,South,190,0.0,-999.0,-999,-99.99,,,0.00,,,2013-02-22 15:22:00,
2013-02-22 07:32:00,-999.0,-99.9,-100.00,South,190,0.0,-999.0,-999,-99.99,,,0.00,,,2013-02-22 15:32:00,
2013-02-22 07:42:00,-999.0,-99.9,-100.00,South,190,0.0,-999.0,-999,-99.99,,,0.00,,,2013-02-22 15:42:00,
2013-02-22 08:01:00,34.0,34.0,-100.00,SSE,160,3.0,10.0,100,0.00,,,0.00,0.000000,,2013-02-22 16:01:00,
2013-02-22 08:11:00,34.0,34.0,-100.00,SSE,160,3.0,10.0,100,0.00,,,0.00,0.000000,,2013-02-22 16:11:00,
2013-02-22 08:21:00,34.0,34.0,-100.00,SSE,160,3.0,10.0,100,0.00,,,0.00,0.000000,,2013-02-22 16:21:00,
2013-02-22 08:31:00,34.0,34.0,-100.00,SSE,160,3.0,10.0,100,0.00,,,0.00,0.000000,,2013-02-22 16:31:00,
2013-02-22 08:41:00,34.0,34.0,-100.00,SSE,160,3.0,10.0,100,0.00,,,0.00,0.000000,,2013-02-22 16:41:00,
2013-02-22 09:01:00,33.0,33.0,-100.00,WSW,248,4.0,17.0,100,0.00,,,0.00,0.000000,,2013-02-22 17:01:00,
2013-02-22 09:11:00,33.0,33.0,-100.00,WSW,248,4.0,17.0,100,0.00,,,0.00,0.000000,,2013-02-22 17:11:00,
2013-02-22 09:21:00,33.0,33.0,-100.00,WSW,248,4.0,17.0,100,0.00,,,0.00,0.000000,,2013-02-22 17:21:00,
2013-02-22 09:31:00,33.0,33.0,-100.00,WSW,248,4.0,17.0,100,0.00,,,0.00,0.000000,,2013-02-22 17:31:00,
2013-02-22 09:41:00,33.0,33.0,-100.00,WSW,248,4.0,17.0,100,0.00,,,0.00,0.000000,,2013-02-22 17:41:00,
2013-02-22 10:01:00,33.0,33.0,-100.00,NW,310,3.0,16.0,100,0.00,,,0.00,1.000000,,2013-02-22 18:01:00,
2013-02-22 10:12:00,33.0,33.0,-100.00,NW,310,3.0,16.0,100,0.00,,,0.00,1.000000,,2013-02-22 18:12:00,
2013-02-22 10:22:00,33.0,33.0,-100.00,NW,310,3.0,16.0,100,0.00,,,0.00,1.000000,,2013-02-22 18:22:00,
2013-02-22 10:31:00,33.0,33.0,-100.00,NW,310,3.0,16.0,100,0.00,,,0.00,1.000000,,2013-02-22 18:31:00,
2013-02-22 10:41:00,33.0,33.0,-100.00,NW,310,3.0,16.0,100,0.00,,,0.00,1.000000,,2013-02-22 18:41:00,
2013-02-22 11:01:00,33.0,33.0,-100.00,NNE,25,1.0,18.0,100,0.00,,,0.00,2.000000,,2013-02-22 19:01:00,
2013-02-22 11:11:00,33.0,33.0,-100.00,NNE,25,1.0,18.0,100,0.00,,,0.00,2.000000,,2013-02-22 19:11:00,
2013-02-22 11:21:00,33.0,33.0,-100.00,NNE,25,1.0,18.0,100,0.00,,,0.00,2.000000,,2013-02-22 19:21:00,
2013-02-22 11:31:00,33.0,33.0,-100.00,NNE,25,1.0,18.0,100,0.00,,,0.00,2.000000,,2013-02-22 19:31:00,
2013-02-22 11:41:00,33.0,33.0,-100.00,NNE,25,1.0,18.0,100,0.00,,,0.00,2.000000,,2013-02-22 19:41:00,
2013-02-22 12:01:00,34.0,34.0,-100.00,WSW,249,3.0,12.0,100,0.00,,,0.00,5.000000,,2013-02-22 20:01:00,
2013-02-22 12:11:00,34.0,34.0,-100.00,WSW,249,3.0,12.0,100,0.00,,,0.00,5.000000,,2013-02-22 20:11:00,
2013-02-22 12:21:00,34.0,34.0,-100.00,WSW,249,3.0,12.0,100,0.00,,,0.00,5.000000,,2013-02-22 20:21:00,
2013-02-22 12:31:00,34.0,34.0,-100.00,WSW,249,3.0,12.0,100,0.00,,,0.00,5.000000,,2013-02-22 20:31:00,
2013-02-22 12:41:00,34.0,34.0,-100.00,WSW,249,3.0,12.0,100,0.00,,,0.00,5.000000,,2013-02-22 20:41:00,
2013-02-22 13:01:00,35.0,35.0,-100.00,SSW,208,2.0,12.0,100,0.00,,,0.00,4.000000,,2013-02-22 21:01:00,
2013-02-22 13:11:00,35.0,35.0,-100.00,SSW,208,2.0,12.0,100,0.00,,,0.00,4.000000,,2013-02-22 21:11:00,
2013-02-22 13:21:00,35.0,35.0,-100.00,SSW,208,2.0,12.0,100,0.00,,,0.00,4.000000,,2013-02-22 21:21:00,
2013-02-22 13:31:00,35.0,35.0,-100.00,SSW,208,2.0,12.0,100,0.00,,,0.00,4.000000,,2013-02-22 21:31:00,
2013-02-22 13:41:00,35.0,35.0,-100.00,SSW,208,2.0,12.0,100,0.00,,,0.00,4.000000,,2013-02-22 21:41:00,
2013-02-22 14:01:00,34.0,34.0,-100.00,WSW,255,4.0,28.0,100,0.00,,,0.00,6.000000,,2013-02-22 22:01:00,
2013-02-22 14:11:00,34.0,34.0,-100.00,WSW,255,4.0,28.0,100,0.00,,,0.00,6.000000,,2013-02-22 22:11:00,
2013-02-22 14:21:00,34.0,34.0,-100.00,WSW,255,4.0,28.0,100,0.00,,,0.00,6.000000,,2013-02-22 22:21:00,
2013-02-22 14:31:00,34.0,34.0,-100.00,WSW,255,4.0,28.0,100,0.00,,,0.00,6.000000,,2013-02-22 22:31:00,
2013-02-22 14:41:00,34.0,34.0,-100.00,WSW,255,4.0,28.0,100,0.00,,,0.00,6.000000,,2013-02-22 22:41:00,
2013-02-22 15:01:00,34.0,34.0,-100.00,North,352,3.0,19.0,100,0.00,,,0.00,7.000000,,2013-02-22 23:01:00,
2013-02-22 15:11:00,34.0,34.0,-100.00,North,352,3.0,19.0,100,0.00,,,0.00,7.000000,,2013-02-22 23:11:00,
2013-02-22 15:21:00,34.0,34.0,-100.00,North,352,3.0,19.0,100,0.00,,,0.00,7.000000,,2013-02-22 23:21:00,
2013-02-22 15:31:00,34.0,34.0,-100.00,North,352,3.0,19.0,100,0.00,,,0.00,7.000000,,2013-02-22 23:31:00,
2013-02-22 15:41:00,34.0,34.0,-100.00,North,352,3.0,19.0,100,0.00,,,0.00,7.000000,,2013-02-22 23:41:00,
2013-02-22 16:01:00,38.0,38.0,-100.00,SE,143,1.0,16.0,100,0.00,,,0.00,17.000000,,2013-02-23 00:01:00,
2013-02-22 16:11:00,38.0,38.0,-100.00,SE,143,1.0,16.0,100,0.00,,,0.00,17.000000,,2013-02-23 00:11:00,
2013-02-22 16:21:00,38.0,38.0,-100.00,SE,143,1.0,16.0,100,0.00,,,0.00,17.000000,,2013-02-23 00:21:00,
2013-02-22 16:31:00,38.0,38.0,-100.00,SE,143,1.0,16.0,100,0.00,,,0.00,17.000000,,2013-02-23 00:31:00,
2013-02-22 16:41:00,38.0,38.0,-100.00,SE,143,1.0,16.0,100,0.00,,,0.00,17.000000,,2013-02-23 00:41:00,
2013-02-22 17:01:00,33.0,33.0,-100.00,WNW,302,7.0,17.0,100,0.00,,,0.00,2.000000,,2013-02-23 01:01:00,
2013-02-22 17:11:00,33.0,33.0,-100.00,WNW,302,7.0,17.0,100,0.00,,,0.00,2.000000,,2013-02-23 01:11:00,
2013-02-22 17:21:00,33.0,33.0,-100.00,WNW,302,7.0,17.0,100,0.00,,,0.00,2.000000,,2013-02-23 01:21:00,
2013-02-22 17:31:00,33.0,33.0,-100.00,WNW,302,7.0,17.0,100,0.00,,,0.00,2.000000,,2013-02-23 01:31:00,
2013-02-22 17:41:00,33.0,33.0,-100.00,WNW,302,7.0,17.0,100,0.00,,,0.00,2.000000,,2013-02-23 01:41:00,
2013-02-22 19:01:00,33.0,33.0,-100.00,West,267,3.0,14.0,100,-99.99,,,0.00,0.000000,,2013-02-23 03:01:00,
2013-02-22 19:11:00,33.0,33.0,-100.00,West,267,3.0,14.0,100,-99.99,,,0.00,0.000000,,2013-02-23 03:11:00,
2013-02-22 19:21:00,33.0,33.0,-100.00,West,267,3.0,14.0,100,-99.99,,,0.00,0.000000,,2013-02-23 03:21:00,
2013-02-22 19:31:00,33.0,33.0,-100.00,West,267,3.0,14.0,100,-99.99,,,0.00,0.000000,,2013-02-23 03:31:00,
2013-02-22 19:41:00,33.0,33.0,-100.00,West,267,3.0,14.0,100,-99.99,,,0.00,0.000000,,2013-02-23 03:41:00,
2013-02-22 20:01:00,34.0,34.0,-100.00,NNW,334,6.0,21.0,100,0.00,,,0.00,0.000000,,2013-02-23 04:01:00,
2013-02-22 20:11:00,34.0,34.0,-100.00,NNW,334,6.0,21.0,100,0.00,,,0.00,0.000000,,2013-02-23 04:11:00,
2013-02-22 20:21:00,34.0,34.0,-100.00,NNW,334,6.0,21.0,100,0.00,,,0.00,0.000000,,2013-02-23 04:21:00,
2013-02-22 20:31:00,34.0,34.0,-100.00,NNW,334,6.0,21.0,100,0.00,,,0.00,0.000000,,2013-02-23 04:31:00,
2013-02-22 20:41:00,34.0,34.0,-100.00,NNW,334,6.0,21.0,100,0.00,,,0.00,0.000000,,2013-02-23 04:41:00,
2013-02-22 21:02:00,32.0,32.0,-100.00,SSW,204,4.0,14.0,100,0.00,,,0.00,0.000000,,2013-02-23 05:02:00,
2013-02-22 21:12:00,32.0,32.0,-100.00,SSW,204,4.0,14.0,100,0.00,,,0.00,0.000000,,2013-02-23 05:12:00,
2013-02-22 21:22:00,32.0,32.0,-100.00,SSW,204,4.0,14.0,100,0.00,,,0.00,0.000000,,2013-02-23 05:22:00,
2013-02-22 21:32:00,32.0,32.0,-100.00,SSW,204,4.0,14.0,100,0.00,,,0.00,0.000000,,2013-02-23 05:32:00,
2013-02-22 21:41:00,32.0,32.0,-100.00,SSW,204,4.0,14.0,100,0.00,,,0.00,0.000000,,2013-02-23 05:41:00,
2013-02-22 22:01:00,33.0,33.0,-100.00,NE,43,3.0,15.0,100,0.00,,,0.00,0.000000,,2013-02-23 06:01:00,
2013-02-22 22:11:00,33.0,33.0,-100.00,NE,43,3.0,15.0,100,0.00,,,0.00,0.000000,,2013-02-23 06:11:00,
2013-02-22 22:22:00,33.0,33.0,-100.00,NE,43,3.0,15.0,100,0.00,,,0.00,0.000000,,2013-02-23 06:22:00,
2013-02-22 22:31:00,33.0,33.0,-100.00,NE,43,3.0,15.0,100,0.00,,,0.00,0.000000,,2013-02-23 06:31:00,
2013-02-22 22:41:00,33.0,33.0,-100.00,NE,43,3.0,15.0,100,0.00,,,0.00,0.000000,,2013-02-23 06:41:00,
2013-02-22 23:01:00,33.0,33.0,-100.00,SE,138,4.0,15.0,100,0.00,,,0.00,0.000000,,2013-02-23 07:01:00,
2013-02-22 23:11:00,33.0,33.0,-100.00,SE,138,4.0,15.0,100,0.00,,,0.00,0.000000,,2013-02-23 07:11:00,
2013-02-22 23:21:00,33.0,33.0,-100.00,SE,138,4.0,15.0,100,0.00,,,0.00,0.000000,,2013-02-23 07:21:00,
2013-02-22 23:31:00,33.0,33.0,-100.00,SE,138,4.0,15.0,100,0.00,,,0.00,0.000000,,2013-02-23 07:31:00,
2013-02-22 23:41:00,33.0,33.0,-100.00,SE,138,4.0,15.0,100,0.00,,,0.00,0.000000,,2013-02-23 07:41:00,